UAL2305 KSFO-KIAH

Flight info

Callsign UAL2305
Flight time 3h 19m
Altitude 35000
Route WESLA5 KAYEX LOSHN BOILE Q4 FUSCO DIESL TTORO3
Aircraft B739/M-SDE2E3FGHIRWXY/LB1

Departure

Time 2026-05-05 03:50
Airport San Francisco International Airport (KSFO)

Arrival

Time 2026-05-05 07:10
Airport George Bush Intercontinental Airport (KIAH)
Time Latitude Longitude Altitude Speed Heading
2026-05-05 03:24 37.61927 -122.38490 21 ft 0 kts 119°
2026-05-05 03:34 37.61936 -122.38509 21 ft 4 kts 119°
2026-05-05 03:34 37.61949 -122.38538 25 ft 4 kts 137°
2026-05-05 03:34 37.61971 -122.38551 22 ft 4 kts 183°
2026-05-05 03:35 37.61992 -122.38545 23 ft 1 kts 208°
2026-05-05 03:35 37.61995 -122.38542 22 ft 0 kts 208°
2026-05-05 03:39 37.61986 -122.38540 21 ft 4 kts 158°
2026-05-05 03:39 37.61991 -122.38516 23 ft 3 kts 33°
2026-05-05 03:39 37.62028 -122.38506 21 ft 9 kts
2026-05-05 03:40 37.62062 -122.38453 21 ft 9 kts 94°
2026-05-05 03:40 37.62035 -122.38369 21 ft 12 kts 115°
2026-05-05 03:40 37.61991 -122.38265 21 ft 14 kts 119°
2026-05-05 03:40 37.61948 -122.38160 22 ft 13 kts 117°
2026-05-05 03:41 37.61906 -122.38060 23 ft 13 kts 117°
2026-05-05 03:41 37.61864 -122.37960 21 ft 13 kts 118°
2026-05-05 03:41 37.61824 -122.37853 21 ft 13 kts 110°
2026-05-05 03:41 37.61785 -122.37736 21 ft 18 kts 108°
2026-05-05 03:42 37.61733 -122.37556 21 ft 26 kts 112°
2026-05-05 03:42 37.61644 -122.37331 22 ft 21 kts 117°
2026-05-05 03:42 37.61574 -122.37164 22 ft 21 kts 116°
2026-05-05 03:42 37.61506 -122.37003 21 ft 21 kts 116°
2026-05-05 03:43 37.61419 -122.36859 21 ft 20 kts 131°
2026-05-05 03:43 37.61341 -122.36720 21 ft 20 kts 118°
2026-05-05 03:43 37.61280 -122.36570 21 ft 19 kts 118°
2026-05-05 03:43 37.61218 -122.36427 24 ft 18 kts 119°
2026-05-05 03:44 37.61159 -122.36288 23 ft 18 kts 117°
2026-05-05 03:44 37.61102 -122.36153 23 ft 17 kts 117°
2026-05-05 03:44 37.61053 -122.36021 21 ft 16 kts 99°
2026-05-05 03:44 37.61053 -122.35991 21 ft 0 kts 85°
2026-05-05 03:48 37.61056 -122.35974 21 ft 5 kts 71°
2026-05-05 03:49 37.61080 -122.35931 21 ft 6 kts 44°
2026-05-05 03:49 37.61131 -122.35889 22 ft 13 kts 26°
2026-05-05 03:49 37.61209 -122.35927 21 ft 19 kts 295°
2026-05-05 03:49 37.61376 -122.36326 21 ft 83 kts 297°
2026-05-05 03:50 37.61732 -122.37175 22 ft 134 kts 298°
2026-05-05 03:50 37.62194 -122.38345 220 ft 155 kts 296°
2026-05-05 03:50 37.62703 -122.39539 753 ft 156 kts 297°
2026-05-05 03:50 37.63235 -122.40732 1303 ft 156 kts 299°
2026-05-05 03:51 37.63803 -122.41946 1744 ft 163 kts 301°
2026-05-05 03:51 37.64371 -122.43176 2256 ft 167 kts 300°
2026-05-05 03:51 37.64999 -122.44465 2634 ft 180 kts 300°
2026-05-05 03:51 37.65624 -122.45913 2870 ft 195 kts 296°
2026-05-05 03:52 37.66185 -122.47542 3129 ft 211 kts 280°
2026-05-05 03:52 37.66052 -122.49480 3335 ft 233 kts 251°
2026-05-05 03:52 37.65213 -122.51157 4182 ft 223 kts 224°
2026-05-05 03:52 37.63939 -122.52325 4645 ft 233 kts 206°
2026-05-05 03:53 37.62372 -122.52934 5146 ft 240 kts 187°
2026-05-05 03:53 37.60696 -122.52894 5767 ft 242 kts 169°
2026-05-05 03:53 37.59105 -122.52148 6281 ft 249 kts 151°
2026-05-05 03:53 37.57578 -122.51034 6694 ft 258 kts 150°
2026-05-05 03:54 37.55904 -122.50202 7098 ft 269 kts 171°
2026-05-05 03:54 37.54053 -122.49723 7596 ft 275 kts 159°
2026-05-05 03:54 37.52268 -122.48857 8184 ft 279 kts 159°
2026-05-05 03:54 37.50400 -122.48054 8703 ft 287 kts 159°
2026-05-05 03:55 37.48653 -122.46874 9291 ft 288 kts 136°
2026-05-05 03:55 37.47297 -122.45022 9957 ft 289 kts 128°
2026-05-05 03:55 37.46005 -122.43028 10341 ft 302 kts 127°
2026-05-05 03:55 37.44653 -122.40888 10519 ft 322 kts 126°
2026-05-05 03:56 37.43244 -122.38656 11002 ft 329 kts 126°
2026-05-05 03:56 37.41805 -122.36390 11589 ft 335 kts 127°
2026-05-05 03:56 37.40352 -122.34105 12099 ft 342 kts 126°
2026-05-05 03:56 37.38860 -122.31760 12762 ft 345 kts 126°
2026-05-05 03:57 37.37353 -122.29408 13492 ft 347 kts 126°
2026-05-05 03:57 37.35834 -122.27048 14201 ft 347 kts 126°
2026-05-05 03:57 37.34304 -122.24677 14806 ft 351 kts 126°
2026-05-05 03:57 37.32761 -122.22290 15428 ft 354 kts 126°
2026-05-05 03:58 37.31202 -122.19881 16074 ft 356 kts 126°
2026-05-05 03:58 37.29715 -122.17397 16711 ft 356 kts 125°
2026-05-05 03:58 37.28096 -122.15016 17304 ft 359 kts 127°
2026-05-05 03:58 37.26488 -122.12611 17973 ft 360 kts 126°
2026-05-05 03:59 37.24894 -122.10180 18583 ft 361 kts 125°
2026-05-05 03:59 37.23294 -122.07723 19062 ft 365 kts 125°
2026-05-05 03:59 37.21693 -122.05257 19647 ft 365 kts 125°
2026-05-05 03:59 37.20089 -122.02781 20168 ft 367 kts 124°
2026-05-05 04:00 37.18493 -122.00321 20597 ft 370 kts 124°
2026-05-05 04:00 37.16860 -121.97803 21022 ft 374 kts 124°
2026-05-05 04:00 37.15236 -121.95246 21422 ft 376 kts 124°
2026-05-05 04:00 37.13583 -121.92711 21887 ft 376 kts 124°
2026-05-05 04:01 37.11917 -121.90175 22340 ft 377 kts 124°
2026-05-05 04:01 37.10249 -121.87632 22769 ft 379 kts 124°
2026-05-05 04:01 37.08565 -121.85070 23132 ft 383 kts 124°
2026-05-05 04:01 37.06868 -121.82493 23543 ft 385 kts 124°
2026-05-05 04:02 37.05159 -121.79891 23905 ft 386 kts 124°
2026-05-05 04:02 37.03446 -121.77295 24316 ft 387 kts 124°
2026-05-05 04:02 37.01729 -121.74699 24678 ft 387 kts 124°
2026-05-05 04:02 37.00033 -121.72110 25164 ft 384 kts 123°
2026-05-05 04:03 36.98365 -121.69562 25500 ft 384 kts 123°
2026-05-05 04:03 36.96667 -121.66972 25788 ft 386 kts 123°
2026-05-05 04:03 36.94957 -121.64365 26039 ft 388 kts 123°
2026-05-05 04:03 36.93241 -121.61752 26309 ft 390 kts 123°
2026-05-05 04:04 36.91515 -121.59134 26622 ft 391 kts 123°
2026-05-05 04:04 36.89782 -121.56506 26904 ft 391 kts 123°
2026-05-05 04:04 36.88050 -121.53881 27196 ft 392 kts 123°
2026-05-05 04:04 36.86317 -121.51256 27507 ft 391 kts 123°
2026-05-05 04:05 36.84588 -121.48644 27789 ft 391 kts 123°
2026-05-05 04:05 36.82870 -121.46046 27987 ft 393 kts 123°
2026-05-05 04:05 36.81125 -121.43411 28197 ft 395 kts 123°
2026-05-05 04:05 36.79378 -121.40773 28421 ft 396 kts 123°
2026-05-05 04:06 36.77618 -121.38119 28664 ft 396 kts 123°
2026-05-05 04:06 36.75860 -121.35470 28873 ft 397 kts 123°
2026-05-05 04:06 36.74102 -121.32822 29069 ft 399 kts 123°
2026-05-05 04:06 36.72334 -121.30161 29286 ft 400 kts 123°
2026-05-05 04:07 36.68773 -121.24806 29464 ft 406 kts 123°
2026-05-05 04:07 36.66969 -121.22100 29659 ft 405 kts 123°
2026-05-05 04:07 36.65146 -121.19419 30017 ft 405 kts 126°
2026-05-05 04:08 36.63267 -121.16810 30138 ft 406 kts 123°
2026-05-05 04:08 36.61485 -121.14081 30223 ft 407 kts 122°
2026-05-05 04:08 36.59706 -121.11324 30355 ft 408 kts 122°
2026-05-05 04:08 36.57915 -121.08580 30486 ft 410 kts 123°
2026-05-05 04:09 36.54261 -121.03086 30528 ft 419 kts 125°
2026-05-05 04:09 36.50499 -120.97477 30592 ft 426 kts 125°
2026-05-05 04:10 36.46693 -120.91802 30778 ft 428 kts 125°
2026-05-05 04:10 36.44795 -120.88965 30896 ft 427 kts 125°
2026-05-05 04:10 36.42895 -120.86119 30934 ft 430 kts 125°
2026-05-05 04:11 36.39090 -120.80412 31090 ft 433 kts 125°
2026-05-05 04:11 36.37168 -120.77530 31191 ft 434 kts 126°
2026-05-05 04:11 36.35242 -120.74643 31234 ft 436 kts 126°
2026-05-05 04:12 36.31362 -120.68840 31386 ft 438 kts 126°
2026-05-05 04:12 36.29415 -120.65932 31502 ft 438 kts 126°
2026-05-05 04:12 36.27463 -120.63022 31584 ft 440 kts 127°
2026-05-05 04:13 36.23552 -120.57194 31607 ft 446 kts 127°
2026-05-05 04:13 36.19571 -120.51267 31711 ft 449 kts 127°
2026-05-05 04:14 36.15569 -120.45325 31949 ft 449 kts 128°
2026-05-05 04:14 36.11546 -120.39366 32012 ft 454 kts 129°
2026-05-05 04:15 36.07506 -120.33392 32070 ft 458 kts 129°
2026-05-05 04:15 36.03411 -120.27347 32251 ft 458 kts 129°
2026-05-05 04:16 36.01362 -120.24327 32356 ft 459 kts 129°
2026-05-05 04:16 35.99314 -120.21310 32484 ft 458 kts 129°
2026-05-05 04:16 35.97270 -120.18303 32611 ft 458 kts 130°
2026-05-05 04:16 35.95213 -120.15279 32614 ft 460 kts 130°
2026-05-05 04:17 35.91087 -120.09217 32689 ft 463 kts 131°
2026-05-05 04:17 35.86954 -120.03156 32788 ft 465 kts 131°
2026-05-05 04:18 35.84873 -120.00110 32915 ft 464 kts 131°
2026-05-05 04:18 35.82783 -119.97085 33033 ft 464 kts 131°
2026-05-05 04:18 35.78540 -119.91063 33071 ft 467 kts 133°
2026-05-05 04:19 35.74291 -119.85059 33219 ft 468 kts 133°
2026-05-05 04:19 35.72158 -119.82041 33333 ft 467 kts 133°
2026-05-05 04:19 35.70032 -119.79032 33473 ft 466 kts 133°
2026-05-05 04:20 35.65775 -119.73013 33609 ft 467 kts 134°
2026-05-05 04:20 35.61497 -119.66972 33650 ft 470 kts 134°
2026-05-05 04:21 35.59344 -119.63951 33754 ft 469 kts 134°
2026-05-05 04:21 35.57200 -119.60939 33874 ft 468 kts 134°
2026-05-05 04:21 35.52948 -119.54954 34015 ft 469 kts 134°
2026-05-05 04:22 35.48661 -119.48918 34090 ft 470 kts 136°
2026-05-05 04:22 35.44353 -119.42873 34183 ft 470 kts 136°
2026-05-05 04:23 35.42203 -119.39859 34289 ft 469 kts 136°
2026-05-05 04:23 35.40778 -119.37865 34354 ft 469 kts 136°
2026-05-05 04:23 35.35783 -119.30881 34467 ft 469 kts 136°
2026-05-05 04:24 35.31480 -119.24876 34567 ft 469 kts 136°
2026-05-05 04:25 35.25761 -119.16910 34819 ft 467 kts 137°
2026-05-05 04:25 35.23614 -119.13926 34934 ft 467 kts 137°
2026-05-05 04:25 35.20769 -119.09975 34981 ft 469 kts 137°
2026-05-05 04:26 35.16462 -119.03990 34976 ft 468 kts 137°
2026-05-05 04:26 35.12910 -118.99022 34983 ft 466 kts 137°
2026-05-05 04:27 35.08624 -118.93098 34985 ft 464 kts 139°
2026-05-05 04:27 35.04343 -118.87209 34982 ft 463 kts 139°
2026-05-05 04:28 34.99380 -118.80386 34998 ft 461 kts 140°
2026-05-05 04:28 34.95847 -118.75532 35000 ft 461 kts 140°
2026-05-05 04:29 34.91575 -118.69673 35004 ft 462 kts 140°
2026-05-05 04:29 34.87324 -118.63797 34986 ft 462 kts 141°
2026-05-05 04:30 34.83058 -118.57979 34993 ft 461 kts 141°
2026-05-05 04:30 34.78811 -118.52205 34998 ft 460 kts 141°
2026-05-05 04:31 34.74556 -118.46411 35007 ft 459 kts 141°
2026-05-05 04:31 34.70300 -118.40619 35004 ft 459 kts 141°
2026-05-05 04:32 34.66057 -118.34847 34993 ft 458 kts 142°
2026-05-05 04:32 34.61841 -118.29126 35011 ft 458 kts 142°
2026-05-05 04:33 34.57585 -118.23366 35000 ft 458 kts 142°
2026-05-05 04:33 34.53335 -118.17619 35000 ft 457 kts 142°
2026-05-05 04:34 34.49081 -118.11900 34989 ft 455 kts 145°
2026-05-05 04:34 34.44831 -118.06174 35024 ft 461 kts 140°
2026-05-05 04:34 34.42949 -118.02938 34988 ft 477 kts 131°
2026-05-05 04:35 34.41446 -117.99377 34998 ft 489 kts 122°
2026-05-05 04:35 34.39407 -117.91362 35026 ft 501 kts 115°
2026-05-05 04:36 34.37611 -117.83196 35005 ft 502 kts 115°
2026-05-05 04:36 34.35776 -117.75032 34998 ft 502 kts 116°
2026-05-05 04:37 34.33896 -117.66930 35037 ft 505 kts 116°
2026-05-05 04:37 34.31959 -117.58722 35012 ft 509 kts 116°
2026-05-05 04:38 34.30015 -117.50488 35009 ft 509 kts 116°
2026-05-05 04:38 34.28071 -117.42262 35024 ft 508 kts 117°
2026-05-05 04:39 34.26142 -117.34127 35017 ft 506 kts 117°
2026-05-05 04:39 34.24204 -117.25968 35038 ft 504 kts 117°
2026-05-05 04:40 34.22259 -117.17836 35003 ft 504 kts 117°
2026-05-05 04:40 34.20304 -117.09696 34980 ft 504 kts 118°
2026-05-05 04:41 34.18359 -117.01609 34981 ft 506 kts 118°
2026-05-05 04:41 34.16392 -116.93452 34966 ft 506 kts 118°
2026-05-05 04:42 34.14425 -116.85312 34926 ft 504 kts 119°
2026-05-05 04:42 34.12464 -116.77213 34949 ft 502 kts 119°
2026-05-05 04:43 34.10499 -116.69164 34943 ft 506 kts 118°
2026-05-05 04:43 34.08499 -116.61000 34931 ft 509 kts 118°
2026-05-05 04:44 34.06487 -116.52785 34918 ft 511 kts 118°
2026-05-05 04:44 34.04465 -116.44563 34910 ft 510 kts 118°
2026-05-05 04:45 34.02439 -116.36337 34919 ft 513 kts 118°
2026-05-05 04:45 34.00399 -116.28084 34902 ft 515 kts 118°
2026-05-05 04:46 33.98366 -116.19882 34898 ft 514 kts 118°
2026-05-05 04:46 33.96319 -116.11647 34893 ft 513 kts 118°
2026-05-05 04:47 33.94268 -116.03430 34898 ft 512 kts 118°
2026-05-05 04:47 33.92218 -115.95244 34885 ft 510 kts 118°
2026-05-05 04:48 33.90181 -115.87138 34864 ft 508 kts 118°
2026-05-05 04:48 33.88132 -115.79008 34873 ft 507 kts 118°
2026-05-05 04:49 33.86078 -115.70891 34871 ft 507 kts 118°
2026-05-05 04:49 33.84015 -115.62776 34840 ft 508 kts 118°
2026-05-05 04:50 33.81943 -115.54655 34853 ft 510 kts 118°
2026-05-05 04:50 33.79870 -115.46525 34839 ft 514 kts 118°
2026-05-05 04:51 33.77775 -115.38323 34873 ft 513 kts 118°
2026-05-05 04:51 33.75681 -115.30144 34858 ft 511 kts 119°
2026-05-05 04:52 33.73581 -115.21986 34875 ft 511 kts 119°
2026-05-05 04:52 33.71491 -115.13897 34885 ft 510 kts 119°
2026-05-05 04:53 33.69380 -115.05752 34881 ft 511 kts 119°
2026-05-05 04:53 33.67262 -114.97603 34876 ft 511 kts 118°
2026-05-05 04:54 33.65143 -114.89468 34892 ft 511 kts 118°
2026-05-05 04:54 33.63032 -114.81396 34884 ft 511 kts 118°
2026-05-05 04:55 33.60901 -114.73266 34897 ft 510 kts 119°
2026-05-05 04:55 33.58770 -114.65159 34908 ft 510 kts 119°
2026-05-05 04:56 33.56632 -114.57053 34906 ft 510 kts 119°
2026-05-05 04:56 33.54507 -114.49015 34904 ft 510 kts 119°
2026-05-05 04:57 33.52636 -114.40747 34912 ft 517 kts 114°
2026-05-05 04:57 33.51048 -114.32326 34895 ft 518 kts 113°
2026-05-05 04:58 33.49431 -114.23922 34897 ft 517 kts 114°
2026-05-05 04:58 33.47765 -114.15539 34908 ft 517 kts 114°
2026-05-05 04:59 33.46103 -114.07211 34904 ft 519 kts 113°
2026-05-05 04:59 33.44531 -113.98772 34898 ft 520 kts 112°
2026-05-05 05:00 33.42998 -113.90304 34939 ft 520 kts 113°
2026-05-05 05:00 33.41450 -113.81906 34953 ft 520 kts 113°
2026-05-05 05:01 33.39875 -113.73448 34960 ft 521 kts 114°
2026-05-05 05:01 33.37875 -113.65231 34963 ft 510 kts 121°
2026-05-05 05:02 33.35706 -113.57667 34954 ft 510 kts 121°
2026-05-05 05:02 33.34070 -113.51992 34944 ft 512 kts 121°
2026-05-05 05:03 33.31807 -113.43966 34932 ft 513 kts 121°
2026-05-05 05:03 33.29551 -113.35851 34886 ft 515 kts 121°
2026-05-05 05:04 33.27293 -113.27726 34901 ft 516 kts 121°
2026-05-05 05:04 33.25024 -113.19596 34861 ft 517 kts 121°
2026-05-05 05:05 33.22739 -113.11451 34884 ft 518 kts 121°
2026-05-05 05:05 33.20470 -113.03356 34886 ft 517 kts 121°
2026-05-05 05:06 33.18175 -112.95213 34892 ft 517 kts 122°
2026-05-05 05:06 33.15874 -112.87081 34900 ft 517 kts 122°
2026-05-05 05:07 33.13579 -112.79007 34879 ft 513 kts 122°
2026-05-05 05:07 33.11302 -112.70998 34898 ft 514 kts 122°
2026-05-05 05:08 33.09009 -112.62931 34896 ft 514 kts 122°
2026-05-05 05:08 33.06704 -112.54861 34902 ft 515 kts 122°
2026-05-05 05:09 33.04409 -112.46754 34904 ft 517 kts 121°
2026-05-05 05:09 33.02195 -112.38656 34893 ft 517 kts 121°
2026-05-05 05:10 32.99976 -112.30499 34893 ft 517 kts 121°
2026-05-05 05:10 32.97744 -112.22358 34909 ft 517 kts 121°
2026-05-05 05:11 32.95494 -112.14230 34882 ft 517 kts 121°
2026-05-05 05:11 32.93254 -112.06161 34889 ft 516 kts 121°
2026-05-05 05:12 32.90997 -111.98055 34908 ft 516 kts 121°
2026-05-05 05:12 32.88738 -111.89944 34909 ft 516 kts 121°
2026-05-05 05:13 32.86476 -111.81839 34913 ft 517 kts 121°
2026-05-05 05:13 32.84204 -111.73724 34910 ft 517 kts 121°
2026-05-05 05:14 32.81937 -111.65654 34913 ft 518 kts 121°
2026-05-05 05:14 32.79648 -111.57529 34909 ft 519 kts 121°
2026-05-05 05:15 32.77348 -111.49386 34955 ft 520 kts 121°
2026-05-05 05:15 32.75042 -111.41223 34980 ft 522 kts 121°
2026-05-05 05:15 32.73997 -111.37128 34972 ft 534 kts 113°
2026-05-05 05:16 32.73525 -111.32691 35018 ft 550 kts 100°
2026-05-05 05:16 32.73787 -111.23498 34996 ft 560 kts 94°
2026-05-05 05:17 32.73626 -111.14375 34980 ft 543 kts 109°
2026-05-05 05:17 32.71780 -111.05901 34961 ft 517 kts 124°
2026-05-05 05:18 32.68994 -110.98044 34958 ft 517 kts 126°
2026-05-05 05:18 32.66233 -110.90227 34935 ft 518 kts 124°
2026-05-05 05:19 32.63511 -110.82312 34955 ft 518 kts 124°
2026-05-05 05:19 32.60801 -110.74398 34952 ft 517 kts 124°
2026-05-05 05:20 32.58079 -110.66509 34964 ft 516 kts 124°
2026-05-05 05:20 32.55371 -110.58697 34965 ft 516 kts 124°
2026-05-05 05:21 32.52643 -110.50840 34969 ft 515 kts 124°
2026-05-05 05:21 32.49908 -110.42981 34930 ft 516 kts 123°
2026-05-05 05:22 32.47168 -110.35128 34978 ft 517 kts 123°
2026-05-05 05:22 32.44428 -110.27289 34983 ft 519 kts 123°
2026-05-05 05:23 32.41651 -110.19368 34979 ft 522 kts 123°
2026-05-05 05:23 32.38862 -110.11421 34965 ft 524 kts 123°
2026-05-05 05:24 32.36054 -110.03443 34944 ft 526 kts 123°
2026-05-05 05:24 32.33264 -109.95521 34974 ft 525 kts 123°
2026-05-05 05:25 32.30448 -109.87551 34948 ft 526 kts 123°
2026-05-05 05:25 32.29246 -109.83422 34949 ft 537 kts 114°
2026-05-05 05:25 32.28531 -109.79037 34948 ft 547 kts 107°
2026-05-05 05:26 32.27525 -109.70112 34946 ft 549 kts 105°
2026-05-05 05:26 32.26561 -109.61241 34935 ft 546 kts 105°
2026-05-05 05:27 32.25519 -109.52363 34919 ft 545 kts 106°
2026-05-05 05:27 32.23887 -109.39109 34918 ft 542 kts 107°
2026-05-05 05:28 32.22799 -109.30366 34913 ft 541 kts 107°
2026-05-05 05:28 32.21705 -109.21573 34904 ft 540 kts 107°
2026-05-05 05:29 32.20607 -109.12795 34908 ft 540 kts 107°
2026-05-05 05:29 32.19505 -109.04023 34896 ft 540 kts 106°
2026-05-05 05:30 32.18396 -108.95253 34883 ft 541 kts 107°
2026-05-05 05:30 32.17287 -108.86537 34889 ft 541 kts 107°
2026-05-05 05:31 32.16164 -108.77752 34878 ft 541 kts 107°
2026-05-05 05:31 32.15600 -108.73361 35003 ft 542 kts 107°
2026-05-05 05:31 32.15034 -108.68966 34998 ft 542 kts 106°
2026-05-05 05:32 32.13899 -108.60184 34982 ft 542 kts 106°
2026-05-05 05:32 32.12756 -108.51397 34956 ft 541 kts 107°
2026-05-05 05:33 32.11616 -108.42680 34897 ft 542 kts 106°
2026-05-05 05:33 32.10461 -108.33898 34871 ft 542 kts 106°
2026-05-05 05:34 32.09300 -108.25111 34873 ft 542 kts 106°
2026-05-05 05:34 32.08131 -108.16318 34871 ft 543 kts 106°
2026-05-05 05:35 32.06964 -108.07584 34864 ft 543 kts 106°
2026-05-05 05:35 32.05784 -107.98797 34858 ft 543 kts 106°
2026-05-05 05:36 32.04597 -107.90013 34858 ft 543 kts 106°
2026-05-05 05:36 32.03406 -107.81242 34935 ft 542 kts 107°
2026-05-05 05:37 32.02207 -107.72463 34919 ft 542 kts 106°
2026-05-05 05:37 32.01013 -107.63759 34920 ft 542 kts 106°
2026-05-05 05:38 31.99803 -107.54994 34878 ft 542 kts 106°
2026-05-05 05:38 31.98588 -107.46235 34833 ft 542 kts 107°
2026-05-05 05:39 31.97368 -107.37481 34824 ft 541 kts 106°
2026-05-05 05:39 31.96150 -107.28790 34825 ft 542 kts 106°
2026-05-05 05:40 31.94917 -107.20044 34823 ft 541 kts 106°
2026-05-05 05:40 31.93680 -107.11304 34802 ft 541 kts 106°
2026-05-05 05:41 31.92437 -107.02576 34799 ft 541 kts 106°
2026-05-05 05:41 31.91198 -106.93906 34810 ft 541 kts 106°
2026-05-05 05:42 31.89943 -106.85174 34987 ft 541 kts 106°
2026-05-05 05:42 31.88682 -106.76447 35022 ft 541 kts 106°
2026-05-05 05:43 31.87416 -106.67726 35019 ft 541 kts 105°
2026-05-05 05:43 31.86142 -106.58997 35014 ft 541 kts 106°
2026-05-05 05:44 31.84871 -106.50325 34987 ft 542 kts 106°
2026-05-05 05:44 31.83581 -106.41583 34997 ft 542 kts 106°
2026-05-05 05:45 31.82291 -106.32847 34947 ft 543 kts 106°
2026-05-05 05:45 31.81036 -106.24157 34959 ft 543 kts 104°
2026-05-05 05:46 31.79997 -106.15353 34911 ft 544 kts 103°
2026-05-05 05:46 31.79013 -106.06530 34850 ft 544 kts 103°
2026-05-05 05:47 31.77992 -105.97715 34801 ft 544 kts 103°
2026-05-05 05:47 31.76939 -105.88913 34791 ft 544 kts 103°
2026-05-05 05:48 31.75882 -105.80186 34794 ft 543 kts 103°
2026-05-05 05:48 31.74813 -105.71409 34779 ft 542 kts 103°
2026-05-05 05:49 31.73743 -105.62656 34789 ft 541 kts 103°
2026-05-05 05:49 31.72669 -105.53910 34797 ft 540 kts 103°
2026-05-05 05:50 31.71591 -105.45182 34798 ft 540 kts 103°
2026-05-05 05:50 31.70515 -105.36526 34797 ft 539 kts 103°
2026-05-05 05:51 31.69426 -105.27812 34787 ft 540 kts 104°
2026-05-05 05:51 31.68303 -105.19120 34793 ft 540 kts 104°
2026-05-05 05:52 31.67199 -105.10386 34799 ft 540 kts 103°
2026-05-05 05:52 31.66108 -105.01721 34790 ft 541 kts 103°
2026-05-05 05:53 31.64999 -104.92993 34794 ft 541 kts 103°
2026-05-05 05:53 31.63882 -104.84259 34785 ft 541 kts 103°
2026-05-05 05:54 31.62755 -104.75520 34803 ft 542 kts 103°
2026-05-05 05:54 31.61622 -104.66785 34803 ft 541 kts 103°
2026-05-05 05:55 31.60489 -104.58119 34789 ft 541 kts 103°
2026-05-05 05:55 31.59342 -104.49391 34782 ft 541 kts 103°
2026-05-05 05:56 31.58192 -104.40673 34784 ft 541 kts 103°
2026-05-05 05:56 31.57036 -104.31965 34782 ft 540 kts 103°
2026-05-05 05:57 31.55882 -104.23317 34782 ft 540 kts 103°
2026-05-05 05:57 31.54716 -104.14628 34766 ft 539 kts 103°
2026-05-05 05:58 31.53545 -104.05947 34759 ft 539 kts 103°
2026-05-05 05:58 31.52371 -103.97282 34764 ft 538 kts 103°
2026-05-05 05:59 31.51193 -103.88638 34770 ft 537 kts 103°
2026-05-05 05:59 31.50016 -103.80054 34799 ft 537 kts 103°
2026-05-05 06:00 31.48826 -103.71401 34827 ft 538 kts 103°
2026-05-05 06:00 31.47632 -103.62753 34856 ft 538 kts 103°
2026-05-05 06:01 31.46454 -103.54083 34885 ft 539 kts 102°
2026-05-05 06:01 31.45399 -103.45437 34885 ft 541 kts 101°
2026-05-05 06:02 31.44364 -103.36697 34857 ft 542 kts 101°
2026-05-05 06:02 31.43303 -103.27951 34820 ft 543 kts 101°
2026-05-05 06:03 31.42220 -103.19197 34782 ft 544 kts 101°
2026-05-05 06:03 31.41132 -103.10500 34749 ft 544 kts 102°
2026-05-05 06:04 31.39995 -103.01745 34718 ft 544 kts 102°
2026-05-05 06:04 31.38897 -102.92997 34734 ft 543 kts 101°
2026-05-05 06:05 31.37806 -102.84256 34741 ft 542 kts 101°
2026-05-05 06:05 31.36705 -102.75530 34742 ft 542 kts 101°
2026-05-05 06:06 31.35603 -102.66886 34743 ft 541 kts 102°
2026-05-05 06:06 31.34485 -102.58189 34752 ft 540 kts 102°
2026-05-05 06:07 31.33363 -102.49513 34752 ft 539 kts 102°
2026-05-05 06:07 31.32237 -102.40842 34760 ft 539 kts 102°
2026-05-05 06:08 31.31106 -102.32182 34770 ft 538 kts 101°
2026-05-05 06:08 31.29977 -102.23587 34765 ft 538 kts 102°
2026-05-05 06:09 31.28836 -102.14948 34782 ft 537 kts 102°
2026-05-05 06:09 31.27690 -102.06316 34788 ft 537 kts 102°
2026-05-05 06:10 31.26539 -101.97694 34787 ft 537 kts 101°
2026-05-05 06:10 31.25389 -101.89121 34790 ft 537 kts 101°
2026-05-05 06:11 31.24226 -101.80495 34785 ft 537 kts 101°
2026-05-05 06:11 31.23059 -101.71883 34794 ft 536 kts 101°
2026-05-05 06:12 31.21887 -101.63279 34791 ft 537 kts 101°
2026-05-05 06:12 31.20708 -101.54676 34804 ft 537 kts 101°
2026-05-05 06:13 31.19531 -101.46124 34800 ft 537 kts 101°
2026-05-05 06:13 31.18340 -101.37513 34805 ft 537 kts 101°
2026-05-05 06:14 31.17282 -101.28873 34808 ft 538 kts 97°
2026-05-05 06:14 31.16616 -101.20169 34807 ft 539 kts 95°
2026-05-05 06:15 31.16023 -101.11495 34809 ft 539 kts 96°
2026-05-05 06:15 31.15382 -101.02772 34810 ft 540 kts 96°
2026-05-05 06:16 31.14699 -100.94039 34814 ft 540 kts 96°
2026-05-05 06:16 31.14001 -100.85304 34813 ft 540 kts 96°
2026-05-05 06:17 31.13305 -100.76639 34811 ft 540 kts 96°
2026-05-05 06:17 31.12601 -100.67902 34823 ft 540 kts 96°
2026-05-05 06:18 31.11891 -100.59169 34824 ft 540 kts 96°
2026-05-05 06:18 31.11175 -100.50447 34824 ft 540 kts 96°
2026-05-05 06:19 31.10459 -100.41781 34819 ft 540 kts 96°
2026-05-05 06:19 31.09732 -100.33061 34806 ft 540 kts 96°
2026-05-05 06:20 31.09000 -100.24348 34791 ft 539 kts 96°
2026-05-05 06:20 31.08262 -100.15645 34797 ft 540 kts 96°
2026-05-05 06:21 31.07517 -100.06930 34794 ft 540 kts 96°
2026-05-05 06:21 31.06771 -99.98265 34793 ft 541 kts 96°
2026-05-05 06:22 31.06015 -99.89544 34786 ft 541 kts 96°
2026-05-05 06:22 31.05250 -99.80807 34787 ft 542 kts 96°
2026-05-05 06:23 31.04479 -99.72060 34778 ft 543 kts 96°
2026-05-05 06:23 31.03707 -99.63365 34791 ft 543 kts 96°
2026-05-05 06:24 31.02922 -99.54596 34791 ft 544 kts 96°
2026-05-05 06:24 31.02131 -99.45833 34794 ft 544 kts 96°
2026-05-05 06:25 31.01332 -99.37047 34840 ft 544 kts 96°
2026-05-05 06:25 31.00534 -99.28333 34838 ft 545 kts 96°
2026-05-05 06:26 30.99723 -99.19551 34829 ft 545 kts 96°
2026-05-05 06:26 30.98916 -99.10781 34822 ft 544 kts 96°
2026-05-05 06:27 30.97678 -98.97625 34806 ft 544 kts 95°
2026-05-05 06:28 30.96858 -98.88989 34813 ft 544 kts 96°
2026-05-05 06:28 30.95977 -98.80284 34810 ft 544 kts 98°
2026-05-05 06:29 30.94773 -98.71595 34803 ft 544 kts 99°
2026-05-05 06:29 30.93490 -98.62926 34868 ft 543 kts 99°
2026-05-05 06:30 30.92250 -98.54264 34866 ft 542 kts 99°
2026-05-05 06:30 30.91044 -98.45650 34866 ft 542 kts 98°
2026-05-05 06:31 30.89830 -98.36994 34873 ft 542 kts 99°
2026-05-05 06:31 30.88604 -98.28324 34888 ft 542 kts 98°
2026-05-05 06:32 30.87371 -98.19660 34879 ft 543 kts 98°
2026-05-05 06:32 30.86133 -98.11003 34876 ft 542 kts 98°
2026-05-05 06:33 30.84898 -98.02403 34868 ft 543 kts 99°
2026-05-05 06:33 30.83649 -97.93742 34864 ft 543 kts 98°
2026-05-05 06:34 30.82383 -97.85085 34876 ft 543 kts 99°
2026-05-05 06:34 30.81106 -97.76430 34886 ft 543 kts 99°
2026-05-05 06:35 30.79831 -97.67829 34889 ft 543 kts 99°
2026-05-05 06:35 30.78544 -97.59176 34899 ft 543 kts 99°
2026-05-05 06:36 30.77253 -97.50526 34885 ft 543 kts 98°
2026-05-05 06:36 30.75951 -97.41842 34346 ft 552 kts 99°
2026-05-05 06:36 30.75288 -97.37429 33570 ft 555 kts 99°
2026-05-05 06:37 30.74621 -97.33006 32704 ft 555 kts 99°
2026-05-05 06:37 30.73962 -97.28651 31876 ft 555 kts 99°
2026-05-05 06:37 30.73293 -97.24238 31027 ft 554 kts 99°
2026-05-05 06:37 30.72624 -97.19836 30153 ft 553 kts 99°
2026-05-05 06:38 30.71953 -97.15434 29095 ft 551 kts 100°
2026-05-05 06:38 30.71292 -97.11103 28362 ft 536 kts 100°
2026-05-05 06:38 30.70653 -97.06936 28125 ft 511 kts 100°
2026-05-05 06:38 30.70038 -97.02931 27848 ft 498 kts 100°
2026-05-05 06:39 30.69431 -96.98988 27319 ft 494 kts 100°
2026-05-05 06:39 30.68825 -96.95062 26678 ft 493 kts 100°
2026-05-05 06:39 30.68220 -96.91142 26076 ft 492 kts 100°
2026-05-05 06:39 30.67625 -96.87295 25551 ft 489 kts 100°
2026-05-05 06:40 30.67024 -96.83418 25063 ft 486 kts 99°
2026-05-05 06:40 30.66427 -96.79566 24557 ft 483 kts 99°
2026-05-05 06:40 30.65832 -96.75740 24059 ft 481 kts 99°
2026-05-05 06:40 30.65238 -96.71928 23575 ft 478 kts 100°
2026-05-05 06:41 30.64645 -96.68144 23041 ft 475 kts 100°
2026-05-05 06:41 30.64054 -96.64398 22579 ft 469 kts 99°
2026-05-05 06:41 30.63468 -96.60689 22147 ft 463 kts 99°
2026-05-05 06:41 30.62888 -96.57033 21701 ft 458 kts 100°
2026-05-05 06:42 30.62320 -96.53462 21260 ft 453 kts 99°
2026-05-05 06:42 30.61754 -96.49884 20820 ft 449 kts 99°
2026-05-05 06:42 30.61193 -96.46341 20395 ft 444 kts 99°
2026-05-05 06:42 30.60553 -96.42850 19941 ft 441 kts 108°
2026-05-05 06:43 30.59177 -96.39705 19482 ft 435 kts 128°
2026-05-05 06:43 30.57383 -96.36912 19110 ft 429 kts 130°
2026-05-05 06:43 30.55577 -96.34189 18686 ft 425 kts 130°
2026-05-05 06:43 30.53805 -96.31451 18249 ft 422 kts 128°
2026-05-05 06:44 30.52070 -96.28718 17790 ft 419 kts 128°
2026-05-05 06:44 30.50383 -96.26046 17365 ft 414 kts 128°
2026-05-05 06:44 30.48690 -96.23369 16929 ft 410 kts 128°
2026-05-05 06:44 30.47014 -96.20725 16470 ft 406 kts 128°
2026-05-05 06:45 30.45354 -96.18108 16029 ft 402 kts 128°
2026-05-05 06:45 30.43704 -96.15510 15593 ft 397 kts 128°
2026-05-05 06:45 30.42076 -96.12946 15166 ft 394 kts 128°
2026-05-05 06:45 30.40457 -96.10400 14741 ft 390 kts 128°
2026-05-05 06:46 30.38855 -96.07881 14402 ft 384 kts 128°
2026-05-05 06:46 30.37314 -96.05470 14303 ft 371 kts 130°
2026-05-05 06:46 30.35464 -96.03520 14143 ft 352 kts 152°
2026-05-05 06:46 30.33297 -96.02395 14031 ft 335 kts 166°
2026-05-05 06:47 30.31097 -96.01586 13752 ft 330 kts 168°
2026-05-05 06:47 30.28897 -96.00819 13397 ft 330 kts 168°
2026-05-05 06:47 30.26710 -96.00052 13021 ft 328 kts 167°
2026-05-05 06:47 30.24536 -95.99273 12705 ft 326 kts 167°
2026-05-05 06:48 30.22398 -95.98493 12552 ft 317 kts 166°
2026-05-05 06:48 30.20322 -95.97730 12361 ft 310 kts 167°
2026-05-05 06:48 30.18324 -95.96995 12228 ft 301 kts 167°
2026-05-05 06:48 30.16359 -95.96252 12117 ft 293 kts 162°
2026-05-05 06:49 30.14702 -95.94937 12041 ft 290 kts 130°
2026-05-05 06:49 30.13760 -95.92925 11931 ft 284 kts 106°
2026-05-05 06:49 30.13446 -95.90699 11660 ft 281 kts 93°
2026-05-05 06:49 30.13308 -95.88447 11349 ft 281 kts 92°
2026-05-05 06:50 30.13190 -95.86195 11069 ft 280 kts 92°
2026-05-05 06:50 30.13075 -95.83982 10966 ft 269 kts 92°
2026-05-05 06:50 30.12963 -95.81916 10879 ft 255 kts 92°
2026-05-05 06:50 30.12849 -95.79893 10645 ft 249 kts 92°
2026-05-05 06:51 30.12735 -95.77898 10361 ft 249 kts 92°
2026-05-05 06:51 30.12619 -95.75908 10029 ft 248 kts 92°
2026-05-05 06:51 30.12502 -95.73924 9701 ft 247 kts 93°
2026-05-05 06:51 30.12383 -95.71957 9364 ft 244 kts 93°
2026-05-05 06:52 30.12265 -95.70009 9033 ft 242 kts 93°
2026-05-05 06:52 30.12147 -95.68084 8724 ft 240 kts 95°
2026-05-05 06:52 30.12060 -95.66813 8483 ft 239 kts 94°
2026-05-05 06:52 30.11910 -95.64292 8069 ft 236 kts 95°
2026-05-05 06:53 30.11784 -95.62412 7865 ft 232 kts 96°
2026-05-05 06:53 30.11666 -95.60589 7634 ft 225 kts 96°
2026-05-05 06:53 30.11554 -95.58786 7283 ft 225 kts 96°
2026-05-05 06:53 30.11448 -95.56993 7001 ft 220 kts 96°
2026-05-05 06:54 30.11379 -95.55845 6961 ft 215 kts 96°
2026-05-05 06:54 30.11272 -95.54116 6893 ft 217 kts 96°
2026-05-05 06:54 30.11126 -95.51781 6829 ft 223 kts 96°
2026-05-05 06:54 30.11014 -95.50003 6777 ft 223 kts 96°
2026-05-05 06:55 30.10903 -95.48229 6714 ft 221 kts 97°
2026-05-05 06:55 30.10792 -95.46471 6659 ft 219 kts 97°
2026-05-05 06:55 30.10718 -95.45310 6625 ft 218 kts 97°
2026-05-05 06:55 30.10571 -95.42987 6557 ft 216 kts 97°
2026-05-05 06:56 30.10498 -95.41838 6526 ft 216 kts 97°
2026-05-05 06:56 30.10388 -95.40117 6480 ft 216 kts 97°
2026-05-05 06:56 30.10277 -95.38385 6440 ft 216 kts 97°
2026-05-05 06:56 30.10161 -95.36661 6397 ft 213 kts 98°
2026-05-05 06:57 30.10016 -95.34450 6294 ft 206 kts 98°
2026-05-05 06:57 30.09945 -95.33342 6265 ft 204 kts 98°
2026-05-05 06:57 30.09826 -95.31729 6193 ft 199 kts 103°
2026-05-05 06:57 30.09566 -95.30178 6002 ft 199 kts 105°
2026-05-05 06:58 30.09276 -95.28624 5903 ft 198 kts 106°
2026-05-05 06:58 30.08978 -95.27068 5860 ft 200 kts 106°
2026-05-05 06:58 30.08679 -95.25497 5821 ft 201 kts 106°
2026-05-05 06:58 30.08380 -95.23915 5781 ft 201 kts 106°
2026-05-05 06:59 30.08086 -95.22337 5745 ft 201 kts 106°
2026-05-05 06:59 30.07792 -95.20758 5687 ft 201 kts 106°
2026-05-05 06:59 30.07503 -95.19193 5639 ft 200 kts 106°
2026-05-05 06:59 30.07214 -95.17619 5592 ft 199 kts 106°
2026-05-05 07:00 30.06928 -95.16058 5548 ft 199 kts 106°
2026-05-05 07:00 30.06642 -95.14495 5506 ft 199 kts 106°
2026-05-05 07:00 30.06357 -95.12956 5458 ft 198 kts 106°
2026-05-05 07:00 30.06075 -95.11405 5420 ft 198 kts 106°
2026-05-05 07:01 30.05790 -95.09842 5370 ft 199 kts 106°
2026-05-05 07:01 30.05499 -95.08288 5315 ft 198 kts 109°
2026-05-05 07:01 30.05169 -95.06749 5272 ft 198 kts 108°
2026-05-05 07:01 30.04881 -95.05190 5224 ft 198 kts 108°
2026-05-05 07:02 30.04601 -95.03640 5180 ft 195 kts 116°
2026-05-05 07:02 30.03781 -95.02545 5114 ft 174 kts 166°
2026-05-05 07:02 30.02641 -95.02409 5106 ft 161 kts 194°
2026-05-05 07:02 30.01717 -95.03055 4671 ft 163 kts 239°
2026-05-05 07:03 30.01333 -95.04279 4245 ft 163 kts 250°
2026-05-05 07:03 30.01102 -95.05549 3864 ft 158 kts 254°
2026-05-05 07:03 30.00965 -95.06771 3523 ft 146 kts 256°
2026-05-05 07:03 30.00889 -95.07895 3410 ft 139 kts 258°
2026-05-05 07:04 30.00840 -95.09002 3319 ft 138 kts 258°
2026-05-05 07:04 30.00812 -95.10097 3229 ft 136 kts 259°
2026-05-05 07:04 30.00790 -95.11185 3150 ft 136 kts 258°
2026-05-05 07:04 30.00759 -95.12301 3085 ft 142 kts 259°
2026-05-05 07:05 30.00749 -95.13423 2977 ft 142 kts 259°
2026-05-05 07:05 30.00745 -95.14548 2848 ft 140 kts 259°
2026-05-05 07:05 30.00741 -95.15690 2732 ft 143 kts 259°
2026-05-05 07:05 30.00739 -95.16844 2600 ft 144 kts 259°
2026-05-05 07:06 30.00737 -95.17985 2459 ft 141 kts 259°
2026-05-05 07:06 30.00735 -95.19111 2323 ft 139 kts 258°
2026-05-05 07:06 30.00764 -95.20234 2186 ft 141 kts 263°
2026-05-05 07:06 30.00765 -95.21333 2072 ft 137 kts 257°
2026-05-05 07:07 30.00738 -95.22458 1928 ft 141 kts 259°
2026-05-05 07:07 30.00731 -95.23565 1748 ft 141 kts 259°
2026-05-05 07:07 30.00728 -95.24702 1565 ft 141 kts 258°
2026-05-05 07:07 30.00740 -95.25826 1365 ft 142 kts 261°
2026-05-05 07:08 30.00751 -95.26961 1125 ft 140 kts 258°
2026-05-05 07:08 30.00713 -95.28086 926 ft 144 kts 261°
2026-05-05 07:08 30.00686 -95.29250 685 ft 145 kts 264°
2026-05-05 07:08 30.00682 -95.30421 556 ft 152 kts 267°
2026-05-05 07:09 30.00707 -95.31636 377 ft 151 kts 262°
2026-05-05 07:09 30.00713 -95.32827 205 ft 149 kts 262°
2026-05-05 07:09 30.00715 -95.33962 113 ft 132 kts 263°
2026-05-05 07:09 30.00715 -95.34848 105 ft 81 kts 269°
2026-05-05 07:10 30.00705 -95.35300 105 ft 26 kts 258°
2026-05-05 07:10 30.00648 -95.35459 106 ft 10 kts 241°
2026-05-05 07:10 30.00647 -95.35462 106 ft 0 kts 242°
2026-05-05 07:12 30.00647 -95.35463 106 ft 2 kts 242°
2026-05-05 07:12 30.00612 -95.35528 104 ft 13 kts 241°
2026-05-05 07:12 30.00558 -95.35614 106 ft 13 kts 220°
2026-05-05 07:12 30.00475 -95.35648 106 ft 13 kts 185°
2026-05-05 07:13 30.00388 -95.35646 106 ft 12 kts 181°
2026-05-05 07:13 30.00302 -95.35653 106 ft 12 kts 181°
2026-05-05 07:13 30.00224 -95.35628 106 ft 12 kts 146°
2026-05-05 07:13 30.00157 -95.35563 106 ft 13 kts 139°
2026-05-05 07:14 30.00078 -95.35515 106 ft 13 kts 159°
2026-05-05 07:14 29.99987 -95.35486 106 ft 14 kts 170°
2026-05-05 07:14 29.99880 -95.35483 106 ft 16 kts 182°
2026-05-05 07:14 29.99762 -95.35485 105 ft 18 kts 181°
2026-05-05 07:15 29.99634 -95.35484 106 ft 19 kts 180°
2026-05-05 07:15 29.99500 -95.35486 106 ft 19 kts 179°
2026-05-05 07:15 29.99367 -95.35484 106 ft 19 kts 179°
2026-05-05 07:15 29.99288 -95.35483 106 ft 0 kts 181°
2026-05-05 07:16 29.99285 -95.35483 106 ft 0 kts 182°
2026-05-05 07:16 29.99262 -95.35484 106 ft 10 kts 181°
2026-05-05 07:16 29.99186 -95.35483 106 ft 11 kts 180°
2026-05-05 07:16 29.99100 -95.35484 106 ft 15 kts 180°
2026-05-05 07:17 29.98974 -95.35484 106 ft 20 kts 181°
2026-05-05 07:17 29.98839 -95.35475 106 ft 19 kts 162°
2026-05-05 07:17 29.98721 -95.35409 106 ft 19 kts 152°
2026-05-05 07:17 29.98609 -95.35340 106 ft 18 kts 153°
2026-05-05 07:18 29.98502 -95.35274 106 ft 17 kts 152°
2026-05-05 07:18 29.98401 -95.35208 106 ft 17 kts 136°
2026-05-05 07:18 29.98363 -95.35086 105 ft 16 kts 111°
2026-05-05 07:18 29.98328 -95.34966 106 ft 15 kts 101°
2026-05-05 07:19 29.98324 -95.34846 106 ft 15 kts 92°
2026-05-05 07:19 29.98325 -95.34728 106 ft 16 kts 89°
2026-05-05 07:19 29.98324 -95.34594 106 ft 17 kts 90°
2026-05-05 07:19 29.98349 -95.34466 106 ft 16 kts 63°
2026-05-05 07:20 29.98376 -95.34346 106 ft 16 kts 90°
2026-05-05 07:20 29.98377 -95.34220 106 ft 16 kts 90°
2026-05-05 07:20 29.98368 -95.34093 105 ft 16 kts 109°
2026-05-05 07:20 29.98323 -95.33982 106 ft 15 kts 103°
2026-05-05 07:21 29.98317 -95.33905 106 ft 1 kts 92°
2026-05-05 07:21 29.98317 -95.33899 106 ft 1 kts 91°
2026-05-05 07:21 29.98324 -95.33812 106 ft 19 kts 83°
2026-05-05 07:21 29.98371 -95.33724 106 ft 9 kts 32°
2026-05-05 07:22 29.98396 -95.33707 105 ft 1 kts 31°
2026-05-05 07:22 29.98409 -95.33698 106 ft 4 kts 26°
2026-05-05 07:22 29.98439 -95.33687 106 ft 6 kts 26°
2026-05-05 07:22 29.98464 -95.33645 106 ft 7 kts 78°
2026-05-05 07:23 29.98467 -95.33606 106 ft 2 kts 88°
2026-05-05 07:23 29.98467 -95.33590 106 ft 1 kts 89°
2026-05-05 07:23 29.98467 -95.33589 106 ft 0 kts 89°
2026-05-05 07:23 29.98467 -95.33588 106 ft 0 kts 89°